Location: Clyde
(45.1830°S, 169.3170°E)
Time: 16:42:39
(UTC+12:00)

ADEOS - Pass Details

Date: 14 May 2021
Orbit: 792 x 795 km, 98.9° (Epoch: 16 June)

Event Time Altitude Azimuth Distance (km) Brightness Sun altitude
Rises 18:01:15 0° 168° (SSE) 3,338 6.5 -6.8°
Reaches altitude 10° 18:03:37 10° 169° (SSE) 2,401 5.8 -7.1°
Maximum altitude 18:08:55 76° 253° (WSW) 833 3.8 -8.0°
Drops below altitude 10° 18:14:09 10° 338° (NNW) 2,372 6.6 -8.9°
Sets 18:16:28 0° 339° (NNW) 3,294 7.4 -9.3°
